This is the latest recevied weather packets stored in our database for station/object EA7URS-13. If no packets are shown the sender has not sent any weather packets the latest 10 day(s).
| Time | Temp. | Humidity | Pressure | Rain* | Wind** | Luminosity | Snow |
|---|---|---|---|---|---|---|---|
| 1788664826 | 25.56° C | 51% | 1011.9 hPa | 0 mm | - | 0 W/m² | - |
| 1788664525 | 25.56° C | 50% | 1012 hPa | 0 mm | - | 0 W/m² | - |
| 1788664223 | 25.56° C | 50% | 1012 hPa | 0 mm | - | 0 W/m² | - |
| 1788663923 | 25.56° C | 50% | 1011.8 hPa | 0 mm | - | 0 W/m² | - |
| 1788663621 | 25.56° C | 50% | 1011.8 hPa | 0 mm | - | 0 W/m² | - |
| 1788663318 | 25.56° C | 53% | 1011.7 hPa | 0 mm | - | 0 W/m² | - |
| 1788663017 | 25.56° C | 53% | 1011.7 hPa | 0 mm | - | 0 W/m² | - |
| 1788662716 | 25.56° C | 59% | 1011.9 hPa | 0 mm | - | 0 W/m² | - |
| 1788662415 | 25.56° C | 59% | 1011.9 hPa | 0 mm | - | 0 W/m² | - |
| 1788662114 | 25.56° C | 60% | 1011.7 hPa | 0 mm | - | 0 W/m² | - |
| 1788661812 | 25.56° C | 60% | 1011.7 hPa | 0 mm | - | 0 W/m² | - |
| 1788661511 | 25.56° C | 59% | 1011.6 hPa | 0 mm | - | 0 W/m² | - |
| 1788661210 | 25.56° C | 59% | 1011.6 hPa | 0 mm | - | 0 W/m² | - |
| 1788660909 | 25.56° C | 59% | 1011.7 hPa | 0 mm | - | 0 W/m² | - |
| 1788660608 | 25.56° C | 59% | 1011.7 hPa | 0 mm | - | 0 W/m² | - |
| 1788660307 | 25.56° C | 61% | 1011.6 hPa | 0 mm | - | 0 W/m² | - |
| 1788660006 | 25.56° C | 61% | 1011.6 hPa | 0 mm | - | 0 W/m² | - |
| 1788659705 | 25.56° C | 61% | 1011.4 hPa | 0 mm | - | 0 W/m² | - |
| 1788659403 | 25.56° C | 61% | 1011.4 hPa | 0 mm | - | 0 W/m² | - |
| 1788659102 | 25.56° C | 62% | 1011.6 hPa | 0 mm | - | 0 W/m² | - |
| 1788658801 | 25.56° C | 62% | 1011.6 hPa | 0 mm | - | 0 W/m² | - |
| 1788658500 | 25.56° C | 63% | 1011.7 hPa | 0 mm | - | 0 W/m² | - |
| 1788658199 | 25.56° C | 63% | 1011.7 hPa | 0 mm | - | 0 W/m² | - |
| 1788657898 | 25.56° C | 61% | 1011.6 hPa | 0 mm | - | 0 W/m² | - |
| 1788657597 | 25.56° C | 61% | 1011.6 hPa | 0 mm | - | 0 W/m² | - |
* Rain latest hour (hover to see other rain measurements)
** Current wind speed in m/s (hover to see current wind gust speed)